Terug naar catalogus

OPS 2222

ActiefMilitairMEO
NORAD 3334·PAYLOAD·🇺🇸 United States

Gelanceerd Aug 6, 1968 vanaf Cape Canaveral Space Force Station

Loading…

Volgende Passages (komende 24 uur)

TLE

VersSource: Space-Track

Epoch: Sep 14, 2026, 13:21 UTC

1 03334U 68063A   26257.55694416 -.00000202  00000-0  00000-0 0  9993
2 03334   5.6935 280.9439 0896567 235.0810 313.8789  0.99251914 27017

Volg OPS 2222 in realtime met AllMySat

Download on the App Store